Atlantic City, NJ

2:14 AM EDT on May 24, 2017 (GMT -0400)
Atlantic City International

Weather History for KACY - November, 2013

Change the Weather History Date:

Monday, November 18, 2013

  Actual Average Record
Temperature  
Mean Temperature 56 °F 46 °F  
Max Temperature 68 °F 55 °F 71 °F (1978)
Min Temperature 43 °F 37 °F 20 °F (1875)
Degree Days  
Heating Degree Days 9 19  
Month to date heating degree days 315 294  
Since 1 July heating degree days 680 652  
Cooling Degree Days 0 0  
Month to date cooling degree days 0 0  
Year to date cooling degree days 1088 1054  
Growing Degree Days 9 (Base 50)    
Moisture  
Dew Point 44 °F    
Average Humidity 63    
Maximum Humidity 100    
Minimum Humidity 26    
Precipitation  
Precipitation 0.18 in 0.11 in 1.28 in (1986)
Month to date precipitation 0.74 1.92  
Year to date precipitation 38.25 36.71  
Snow  
Snow 0.00 in 0.00 in T in (1962)
Month to date snowfall T 0.0  
Since 1 July snowfall T 0.0  
Since 1 September snowfall T 0.0  
Snow Depth 0.00 in    
Sea Level Pressure  
Sea Level Pressure 29.74 in    
Wind  
Wind Speed 12 mph (WSW)    
Max Wind Speed 26 mph    
Max Gust Speed 37 mph    
Visibility 9 miles    
Events Rain    
T = Trace of Precipitation, MM = Missing Value Source: NWS Daily Summary

Daily Weather History Graph

Daily Weather History Graph

Search for Another Location

Airport or City:

Trip Planner

Search our weather history database for the weather conditions in past years. The results will help you decide how hot, cold, wet, or windy it might be!

Date:

Astronomy

Nov. 18, 2013 Rise Set
Actual Time 6:45 AM EST 4:40 PM EST
Civil Twilight 6:16 AM EST 5:09 PM EST
Nautical Twilight 5:44 AM EST 5:42 PM EST
Astronomical Twilight 5:12 AM EST 6:14 PM EST
Moon 5:41 PM EST (11/18) 7:32 AM EST (11/18)
Length of Visible Light 10h 52m
Length of Day
9h 55m
Full, 99% of the Moon is Illuminated
Nov 18
Full
Nov 25
Last Quarter
Dec 2
New
Dec 9
First Quarter
Dec 17
Full

Hourly Weather History & Observations

Time (EST) Temp. Dew Point Humidity Pressure Visibility Wind Dir Wind Speed Gust Speed Precip Events Conditions
12:25 AM 61.0 °F 60.1 °F 97% 29.81 in 10.0 mi SSW 12.7 mph - N/A   Overcast
12:54 AM 61.0 °F 60.1 °F 97% 29.79 in 10.0 mi South 11.5 mph - N/A   Overcast
1:54 AM 59.0 °F 59.0 °F 100% 29.75 in 10.0 mi South 11.5 mph - 0.00 in Rain Light Rain
2:07 AM 59.0 °F 59.0 °F 100% 29.75 in 7.0 mi SSW 12.7 mph - 0.00 in Rain Light Rain
2:54 AM 60.1 °F 59.0 °F 96% 29.71 in 2.5 mi South 15.0 mph 21.9 mph 0.03 in Rain Heavy Rain
3:02 AM 60.1 °F 60.1 °F 100% 29.71 in 4.0 mi South 11.5 mph - 0.03 in Rain Light Rain
3:09 AM 60.1 °F 60.1 °F 100% 29.70 in 6.0 mi South 13.8 mph - 0.03 in Rain Light Rain
3:54 AM 61.0 °F 60.1 °F 97% 29.69 in 10.0 mi SSW 15.0 mph 23.0 mph 0.05 in   Overcast
4:44 AM 57.9 °F 57.0 °F 97% 29.72 in 1.8 mi West 20.7 mph 36.8 mph 0.07 in Rain Heavy Rain
4:51 AM 57.2 °F 53.6 °F 88% 29.73 in 3.0 mi West 15.0 mph 29.9 mph 0.09 in Rain Rain
4:54 AM 57.9 °F 54.0 °F 87% 29.73 in 7.0 mi West 13.8 mph 26.5 mph 0.10 in Rain Light Rain
5:54 AM 57.9 °F 52.0 °F 81% 29.73 in 10.0 mi SW 9.2 mph - 0.00 in Rain Light Rain
6:54 AM 57.0 °F 50.0 °F 77% 29.73 in 10.0 mi SW 8.1 mph - 0.00 in Rain Light Rain
7:54 AM 57.0 °F 48.9 °F 74% 29.75 in 10.0 mi SW 10.4 mph - 0.00 in   Overcast
8:54 AM 57.9 °F 48.9 °F 72% 29.75 in 10.0 mi SW 10.4 mph - N/A   Overcast
9:54 AM 61.0 °F 46.9 °F 60% 29.75 in 10.0 mi WSW 11.5 mph - N/A   Mostly Cloudy
10:54 AM 64.9 °F 39.0 °F 39% 29.73 in 10.0 mi West 13.8 mph 24.2 mph N/A   Clear
11:54 AM 66.9 °F 35.1 °F 31% 29.69 in 10.0 mi West 18.4 mph 26.5 mph N/A   Clear
12:54 PM 66.9 °F 33.1 °F 28% 29.68 in 10.0 mi West 19.6 mph 26.5 mph N/A   Clear
1:54 PM 66.9 °F 33.1 °F 28% 29.68 in 10.0 mi WSW 13.8 mph - N/A   Clear
2:54 PM 66.0 °F 30.0 °F 26% 29.69 in 10.0 mi West 15.0 mph - N/A   Clear
3:54 PM 64.9 °F 28.9 °F 26% 29.70 in 10.0 mi West 10.4 mph - N/A   Clear
4:54 PM 61.0 °F 27.0 °F 27% 29.73 in 10.0 mi West 8.1 mph - N/A   Clear
5:54 PM 59.0 °F 28.0 °F 31% 29.75 in 10.0 mi WSW 4.6 mph - N/A   Clear
6:54 PM 55.0 °F 28.9 °F 37% 29.76 in 10.0 mi WSW 4.6 mph - N/A   Clear
7:54 PM 50.0 °F 30.9 °F 48% 29.77 in 10.0 mi SW 6.9 mph - N/A   Clear
8:54 PM 55.0 °F 26.1 °F 33% 29.79 in 10.0 mi WNW 12.7 mph - N/A   Clear
9:54 PM 53.1 °F 26.1 °F 35% 29.81 in 10.0 mi West 6.9 mph - N/A   Clear
10:54 PM 53.1 °F 26.1 °F 35% 29.81 in 10.0 mi WNW 20.7 mph 27.6 mph N/A   Clear
11:54 PM 50.0 °F 27.0 °F 41% 29.83 in 10.0 mi WNW 13.8 mph - N/A   Clear